C/2020 P3 ( ATLAS )

Japanese version
Home page
Updated on November 5, 2020

---------------------------------------------------------------------

* Profile

Discovery Date August 9, 2020
Magnitude 19.0 mag
Discoverer Asteroid Terrestrial-Impact Last Alert System (ATLAS) search program

* Pictures

* Orbital Elements

Epoch 2021 Apr. 16.0 TT = JDT 2459320.5
T 2021 Apr. 20.88364 TT                                 Rudenko
q   6.8124913            (2000.0)            P               Q
z  +0.0001226      Peri.   82.24711     -0.02862195     -0.95528651
 +/-0.0000209      Node    19.49112     +0.09749853     -0.29567794
e   0.9991647      Incl.   61.88614     +0.99482402     +0.00149373
From 201 observations 2020 Aug. 9-Oct. 25, mean residual 0".5.

* Magnitudes Graph

        m1 = 6.0 + 5 log d + 10.0 log r

---------------------------------------------------------------------

The orbital elements are published on M.P.E.C. 2020-U270.
The magnitudes graphs are made with Comet for Windows.

---------------------------------------------------------------------

Copyright(C) Seiichi Yoshida (comet@aerith.net). All rights reserved.